Location: Berg
(47.2344°N, 9.5296°E)
Time: 06:30:00
(UTC+00:00)

Envisat - Pass Details

Date: 24 September 2021
Orbit: 764 x 766 km, 98.2° (Epoch: 23 October)

Event Time Altitude Azimuth Distance (km) Brightness Sun altitude
Rises 04:33:05 0° 14° (NNE) 3,244 6.5 -7.3°
Reaches altitude 10° 04:35:25 10° 16° (NNE) 2,313 5.8 -6.9°
Maximum altitude 04:40:31 77° 103° (ESE) 791 3.3 -6.1°
Drops below altitude 10° 04:45:35 10° 189° (S) 2,294 5.3 -5.2°
Sets 04:47:53 0° 191° (SSW) 3,216 6.1 -4.8°
